Regional Weather Roundup
Issued by NWS

Home | Current Version | Previous Version | Text Only | Print | Product List | Glossary Off
Versions: 1 2 3 4 5 6 7 8 9 10 11 12 13 14 15 16 17 18 19 20 21 22 23 24 25 26 27 28 29 30 31 32 33 34 35 36 37 38 39 40 41 42 43 44 45 46 47 48 49 50

000
ASUS43 KLOT 291109
RWRIL

ILLINOIS REGIONAL WEATHER ROUNDUP
NATIONAL WEATHER SERVICE CHICAGO/ROMEOVILLE IL
600 AM CDT THU JUN 29 2017

NOTE: "FAIR" INDICATES FEW OR NO CLOUDS BELOW 12,000 FEET WITH NO
SIGNIFICANT WEATHER AND/OR OBSTRUCTIONS TO VISIBILITY.

* THESE STATIONS ARE NOT UNDER NWS QUALITY CONTROL. THEY ALSO MAY NOT
  REPORT WEATHER SUCH AS PRECIPITATION OR FOG.

ILZ001-002-007-009-015-016-024-291200-
NORTHWEST ILLINOIS

CITY           SKY/WX    TMP DP  RH WIND       PRES   REMARKS
MOLINE         MOCLDY    69  59  70 SW14G22   29.77R
STERLING*      CLOUDY    68  61  78 SW8       29.77R
SAVANNA*       MOCLDY    70  60  72 SW12      29.75S
$$

ILZ003-004-008-010-011-017-018-291200-
NORTH CENTRAL ILLINOIS

CITY           SKY/WX    TMP DP  RH WIND       PRES   REMARKS
ROCKFORD       CLOUDY    71  61  70 W15G22    29.75R
FREEPORT*      CLOUDY    69  60  73 SW12G17   29.76S
ROCHELLE*      MOCLDY    66  61  82 SW8       29.78R
DE KALB*       CLOUDY    68  60  75 SW9       29.78R
PERU*          CLOUDY    67  59  75 SW6       29.79R
$$

ILZ005-006-012>014-019>023-291200-
NORTHEAST ILLINOIS

CITY           SKY/WX    TMP DP  RH WIND       PRES   REMARKS
CHICAGO-OHARE  MOCLDY    71  63  75 SW9       29.75R
CHICAGO-MIDWAY MOCLDY    73  64  73 SW10      29.76R
AURORA         CLOUDY    69  62  78 SW10      29.78R
LANSING*       MOCLDY    73  62  68 SW14G20   29.79R
JOLIET*        CLOUDY    73  65  74 SW6       29.78S
WAUKEGAN       MOCLDY    66  65  96 SW8       29.73R
DUPAGE AIRPORT CLOUDY    70  64  81 SW12      29.77R
WHEELING       MOCLDY    69  66  90 SW8       29.77R
MORRIS*        CLOUDY    70  63  80 SW8       29.78R
ROMEOVILLE*    CLOUDY    71  62  73 SW9       29.78R
$$

LMZ740>746-291200-
SOUTHERN LAKE MICHIGAN

STATION/POSITION SKY/WX   TEMP    WIND        PRES    VSBY  WAVE
                          AIR SEA DIR/SP/G                  HT/PER
                          (F)     (DEG/KT/KT) (MB)    (MI)  (FT/S)
SOUTHERN BUOY              65 60  160/ 17/ 27 1005.5          3/ 4
WILMETTE HARBOR            68 61  210/ 10/ 12   N/A           2/ 3
HARRISON CRIB              75     210/ 17/ 19   N/A
BURNHAM HARBOR             73                   N/A
CALUMET HARBOR             74     200/  8/ 12 1007.4R
BURNS HARBOR               74     200/ 19/ 22 1008.5F
MICHIGAN CITY              74     180/ 19/ 22   N/A
MICHIGAN CITY 6N           72 65  210/ 16/ 19   N/A           2/ 3
ST. JOSEPH                 72 67  210/ 16/ 21 1007.6          2/ 2
$$

ILZ025>027-034>036-040-047-049-050-058-095>099-291200-
WEST-CENTRAL ILLINOIS

CITY           SKY/WX    TMP DP  RH WIND       PRES   REMARKS
QUINCY         LGT RAIN  66  62  87 S20       29.84F
GALESBURG*     CLOUDY    66  61  83 SW10      29.82R
MACOMB*        CLOUDY    66  62  85 SW12      29.83S
JACKSONVILLE*  CLOUDY    71  60  68 SW15G24   29.81F
PITTSFIELD*    LGT RAIN  67  63  86 SW10G20   29.89R
$$

ILZ028>032-037-038-041>044-048-051>054-059>061-291200-
CENTRAL ILLINOIS

CITY           SKY/WX    TMP DP  RH WIND       PRES   REMARKS
PONTIAC        CLOUDY    70  64  81 W6        29.82R
BLOOMINGTON    MOCLDY    73  64  73 SW13      29.82R
DECATUR        CLOUDY    74  64  71 SW24G33   29.81F
PEORIA         CLOUDY    66  63  90 W5        29.83R
LACON*         CLOUDY    67  61  81 SW5       29.80R
LINCOLN*       CLOUDY    76  64  67 W5G16     29.81R
SPRINGFIELD    CLOUDY    75  65  70 SW12G22   29.80F
TAYLORVILLE    CLOUDY    72  65  78 S16G25    29.85S
$$

ILZ033-039-045-046-055>057-062-063-291200-
EAST-CENTRAL ILLINOIS

CITY           SKY/WX    TMP DP  RH WIND       PRES   REMARKS
CHAMPAIGN      CLOUDY    73  63  70 S17G25    29.83R
RANTOUL*       CLOUDY    75  66  74 SW14G23   29.82R
MATTOON        MOCLDY    73  66  78 S13G22    29.88F
PARIS*         CLOUDY    73  65  78 S16       29.88F
$$

ILZ079-100>102-291200-
SOUTHWEST ILLINOIS

CITY           SKY/WX    TMP DP  RH WIND       PRES   REMARKS
ALTON          CLOUDY    75  67  75 SW14      29.94R
BELLEVILLE     MOCLDY    70  66  85 SW7       29.96F
CAHOKIA*       CLOUDY    74  65  73 S3        29.95F
SPARTA*        MOCLDY    71  65  81 SW5       29.98S
$$

ILZ064>066-069>071-074>076-080>082-084>086-088>090-092>094-291200-
SOUTH-CENTRAL ILLINOIS

CITY           SKY/WX    TMP DP  RH WIND       PRES   REMARKS
CARBONDALE     CLEAR     67  67 100 S6        29.98S
CAIRO*         MOCLDY    71  67  85 S8        30.00S
EFFINGHAM*     CLOUDY    73  66  79 S13G20    29.93F
MARION         CLEAR     70  70 100 S3        30.00S
MT. VERNON     PTCLDY    68  65  90 S6        29.97F
CENTRALIA*     MOCLDY    72  67  84 S7        29.96S
SALEM*         CLOUDY    73  65  77 S9        29.96S
METROPOLIS*    CLEAR     71  66  85 S5        30.02R
$$

ILZ067-068-072-073-078-083-087-091-291200-
SOUTHEAST ILLINOIS

CITY           SKY/WX    TMP DP  RH WIND       PRES   REMARKS
LAWRENCEVILLE  CLOUDY    70  65  84 S9        29.97F
FLORA*         MOCLDY    72  66  81 SW8       29.96F
FAIRFIELD*     CLOUDY    69  66  90 S3        29.97F
HARRISBURG*    CLEAR     68  65  90 S3        30.01R
ROBINSON*      PTCLDY    71  64  80 SW9       29.96S
CARMI*         CLEAR     66  65  94 CALM      29.99S
$$

ABBREVIATIONS USED IN REMARKS
   TC - TEMPERATURE IN CELSIUS
  WCI - WIND CHILL INDEX
   HX - HEAT INDEX
  VSB - VISIBILITY
$$





USA.gov is the U.S. government's official web portal to all federal, state and local government web resources and services.